Probability
0 0 0 0 0 0 0 0 0 1 2 3 4 5 8 8 6 4 8 22 39 42 36 33 32 29 24 19 13 6 1 0 0 0 1 1 1 2 3 3 3 3 3 3 3 3 3 3 3
0 0 0 0 0 0 0 0 1 1 2 3 3 5 7 8 7 6 10 25 39 41 36 34 34 31 26 21 16 10 5 3 2 2 3 3 3 3 3 3 3 3 3 3 3 3 3 3 3
0 0 0 0 0 0 0 0 1 1 1 1 3 4 6 8 8 8 16 30 41 41 38 37 37 34 29 24 20 16 12 10 8 7 5 5 5 5 5 4 3 3 3 3 3 3 3 3 3
0 0 0 0 0 0 0 0 1 1 0 1 2 4 6 9 9 11 18 30 40 42 40 38 37 35 30 26 24 22 19 18 16 12 9 8 8 8 8 6 4 4 4 4 4 4 4 4 4
0 0 0 0 0 0 0 0 0 1 1 2 4 6 8 8 10 13 17 24 33 40 40 36 36 35 31 29 29 28 25 23 21 18 15 14 13 13 12 9 6 6 6 6 6 6 6 6 6
0 0 0 0 0 0 0 0 1 2 2 3 6 9 9 9 11 13 14 19 29 38 40 36 34 33 31 31 31 30 28 25 23 21 21 20 19 18 15 11 9 8 8 8 7 7 6 6 6
0 0 0 0 0 0 0 0 1 2 3 5 8 11 12 12 11 10 12 18 29 39 40 34 29 28 29 30 30 29 28 26 24 23 24 23 22 20 16 13 11 10 10 9 8 7 6 6 6
0 0 0 0 1 1 1 1 2 3 4 7 10 12 14 15 13 11 13 20 30 40 41 33 27 25 24 24 25 26 26 25 24 24 24 23 20 18 15 13 13 13 12 10 8 7 6 6 6
0 0 0 1 1 1 1 2 3 4 6 10 13 13 13 15 15 15 18 24 32 41 42 36 30 25 21 21 22 22 22 22 22 22 22 20 17 14 12 13 15 15 12 10 8 7 6 5 5
0 0 1 2 2 1 1 2 3 3 7 14 17 16 14 14 15 19 23 28 34 39 38 34 31 26 21 21 23 20 18 20 19 19 20 17 13 12 13 15 17 16 12 10 9 7 5 5 5
0 0 1 2 1 0 0 2 2 3 7 15 18 16 15 14 14 19 25 30 34 34 29 27 29 26 24 25 25 21 19 20 19 18 19 17 13 12 15 18 19 18 13 10 9 7 5 5 5
1 0 1 1 0 0 0 2 4 5 9 15 15 13 13 13 14 19 25 30 35 34 28 25 29 30 30 31 29 24 22 22 21 21 22 20 17 15 17 20 21 19 15 12 11 9 6 5 5
1 0 0 0 0 0 1 4 6 8 11 14 11 8 9 12 16 22 28 33 39 40 34 30 33 36 38 37 33 27 26 26 25 25 26 25 23 23 24 25 24 19 16 15 13 11 10 8 7
1 0 0 0 0 0 2 4 7 8 9 10 8 6 8 13 20 28 34 39 44 44 40 37 38 40 41 39 35 31 30 29 28 29 30 28 27 30 31 30 27 22 18 17 16 15 15 13 10
0 0 0 0 0 0 1 3 5 6 6 7 6 5 8 15 22 30 37 43 46 46 44 43 42 41 40 38 35 33 33 32 32 34 34 30 28 31 32 30 28 24 21 22 22 21 19 16 12
0 0 0 0 0 0 1 2 4 4 5 7 7 6 10 16 22 28 35 40 43 44 45 44 42 43 43 40 36 35 35 36 38 40 38 33 30 32 33 31 28 25 25 26 27 25 22 17 14
0 0 0 0 0 1 1 2 4 4 5 8 9 10 15 19 22 27 31 34 36 39 41 41 41 44 47 44 38 35 35 39 42 42 40 37 34 33 32 31 28 25 25 27 27 26 24 19 17
0 0 0 0 0 1 2 3 4 4 5 8 11 14 19 23 25 27 30 32 33 36 37 37 38 44 47 44 38 32 33 37 41 42 40 38 35 31 29 28 27 25 25 27 27 25 23 20 18
0 0 0 0 0 1 2 3 4 5 6 8 10 14 19 24 26 28 31 32 34 35 36 36 39 45 48 44 37 32 32 36 38 39 37 34 31 29 27 24 25 26 26 27 27 24 20 18 17
0 0 0 0 0 1 1 2 4 7 7 7 8 11 17 23 26 27 28 30 32 36 37 38 42 45 45 42 38 35 34 35 34 34 32 28 26 28 25 24 25 27 26 25 24 21 18 17 17
0 0 0 0 0 0 0 1 4 7 8 7 7 9 15 22 25 24 23 23 26 31 34 37 42 42 38 36 37 38 37 34 31 30 30 27 25 26 26 24 25 26 23 21 20 19 17 17 16
0 0 0 0 0 0 0 0 3 7 8 7 7 9 13 19 22 20 18 17 19 23 28 33 37 36 32 31 34 37 37 34 30 29 30 29 25 24 24 23 22 23 22 20 19 18 18 17 16
0 0 0 0 0 0 0 1 3 6 7 6 7 9 14 18 18 16 15 15 16 18 23 26 28 29 29 31 33 36 36 34 31 30 30 28 25 23 22 21 22 23 22 21 20 19 18 16 16
1 1 0 0 0 0 0 1 3 5 6 6 8 10 14 17 17 16 15 17 18 18 19 20 21 23 26 29 31 34 34 33 33 31 29 27 24 22 22 21 22 23 22 22 21 20 17 15 14
0 0 0 0 0 0 0 1 2 4 4 5 8 10 13 16 17 17 17 18 20 19 18 18 20 22 24 26 28 30 31 30 30 29 27 25 23 21 20 20 20 21 21 20 19 18 16 15 14
0 0 0 0 0 0 0 0 1 2 2 3 5 7 10 14 16 16 16 18 20 19 17 17 19 22 23 24 25 26 26 25 24 24 23 22 20 19 18 19 20 19 18 16 15 15 15 15 14
0 0 0 0 0 0 0 0 0 0 1 1 2 4 8 12 13 12 13 16 18 17 15 16 18 20 21 22 22 22 21 19 19 19 20 20 19 18 18 19 19 18 15 13 13 14 14 14 12
0 0 0 0 0 0 0 0 0 1 1 2 2 4 8 10 10 9 10 13 14 14 14 15 18 18 18 18 18 18 17 16 15 17 18 19 18 17 17 16 16 13 11 11 12 12 12 12 12
0 0 0 0 0 0 0 0 1 2 3 4 4 6 8 9 7 6 8 10 10 10 11 14 15 15 14 15 15 15 14 13 13 14 15 16 15 14 12 11 10 8 8 10 10 10 9 9 10
0 0 0 0 0 0 0 0 1 3 5 5 6 7 8 7 5 4 6 8 8 8 9 10 12 12 12 12 12 12 12 11 11 12 13 13 12 10 9 8 7 6 7 9 10 9 8 6 6
Wind_Speed
8 10 10 8 7 8 8 5 3 2 7 8 7 6 8 10 8 8 5 11 18 19 17 16 15 14 14 13 13 13 12 12 11 11 10 9 9 8 8 7 7 6 6 5 5 4 3 3 2
9 12 10 7 8 8 5 4 0 3 7 7 5 6 7 8 9 9 8 12 18 18 15 14 16 15 14 13 13 12 12 12 11 11 10 9 8 8 7 7 6 5 5 4 4 3 2 2 1
12 15 9 8 10 7 5 3 2 6 8 5 5 6 5 6 7 7 9 13 17 16 15 15 16 15 14 14 13 12 12 12 11 10 9 9 8 7 6 6 5 5 4 3 3 2 1 1 1
9 9 8 9 9 5 6 3 2 4 5 5 6 5 5 6 5 8 11 13 15 15 15 16 16 15 14 13 13 12 12 11 11 10 9 8 7 6 6 5 4 4 3 2 2 1 0 0 1
10 8 10 10 8 6 5 2 1 1 2 3 5 5 5 6 9 10 10 12 14 15 14 15 15 15 14 13 13 12 11 11 10 9 9 8 7 6 5 5 4 3 3 2 2 1 1 1 2
8 8 10 9 7 7 4 2 1 2 2 2 4 5 5 7 8 9 9 10 13 15 15 14 15 15 14 13 12 12 11 10 10 9 9 8 7 7 6 5 4 3 3 3 3 2 3 3 4
10 10 11 10 8 6 1 2 1 2 2 2 3 5 6 7 6 7 8 9 12 14 14 12 12 12 12 12 11 11 11 10 9 9 8 8 7 7 7 6 5 4 3 3 3 4 4 4 5
10 10 13 10 8 3 3 2 2 3 2 5 4 3 5 7 7 7 7 9 11 12 12 11 11 10 9 10 11 11 11 10 9 8 8 8 8 8 7 7 6 5 5 5 5 5 6 6 7
13 11 9 8 6 4 3 2 2 2 2 5 5 4 9 10 9 8 7 7 8 10 11 10 10 9 9 9 10 10 10 9 8 7 7 7 5 6 6 6 6 7 7 6 7 7 8 8 9
9 8 8 7 6 5 3 3 2 1 2 3 5 5 10 11 8 8 8 7 8 9 10 9 10 9 8 7 7 6 6 6 6 4 5 4 3 3 3 6 7 8 8 7 8 9 9 8 6
10 10 8 6 6 5 4 3 3 1 1 2 3 6 7 7 7 6 6 6 7 8 7 8 9 7 7 6 6 4 4 4 5 4 4 3 3 2 2 2 4 5 7 5 5 7 5 4 3
10 9 8 7 5 5 5 4 3 2 2 2 3 5 6 6 6 6 6 6 6 8 8 7 8 7 5 5 4 4 3 4 3 4 4 3 2 1 1 1 1 2 2 2 2 3 2 3 3
10 8 7 6 4 3 5 4 2 2 1 4 5 5 4 4 5 5 4 4 6 6 6 6 5 6 4 3 2 4 3 4 3 3 3 2 2 1 1 0 1 2 1 1 2 2 2 3 3
7 8 7 7 5 4 4 4 1 1 2 4 4 5 4 4 4 4 4 3 5 5 5 5 6 6 4 4 2 2 2 2 3 3 3 2 1 1 0 1 1 1 1 1 2 3 3 3 2
8 8 8 8 7 6 6 5 2 3 3 4 3 4 5 5 5 5 5 4 4 4 4 4 5 5 4 4 3 2 2 2 2 3 3 2 1 1 1 1 1 1 1 2 2 3 2 3 3
11 10 9 8 8 7 6 4 1 2 3 3 3 3 4 5 4 5 6 4 4 4 4 4 3 5 4 3 2 1 1 2 2 2 3 3 2 2 2 1 1 1 2 2 2 1 2 3 3
9 9 8 6 5 5 4 4 1 1 1 2 3 3 4 4 4 4 6 5 3 3 4 3 2 4 4 3 2 1 1 1 1 2 2 2 2 2 1 1 1 2 2 2 2 1 2 3 3
7 7 7 6 4 4 3 3 2 2 1 3 3 3 5 4 4 4 5 5 4 3 4 4 3 3 2 2 1 1 1 1 1 1 2 2 2 2 2 2 1 2 2 2 2 2 3 3 4
9 7 8 5 2 3 2 2 2 3 3 3 3 2 4 4 5 5 4 4 4 4 3 3 3 3 2 2 2 2 2 2 1 1 2 2 2 2 2 2 2 3 2 2 3 3 4 4 3
10 8 7 5 2 2 2 2 2 3 4 3 2 3 4 4 5 5 5 4 5 4 3 3 2 2 2 2 2 2 1 2 2 1 2 2 2 2 3 2 2 3 3 3 3 3 3 4 3
8 7 8 7 5 3 3 3 2 4 3 3 3 3 3 4 5 4 4 3 3 4 3 2 2 2 2 2 2 1 1 1 1 2 2 2 2 2 2 2 2 2 3 2 3 3 3 3 3
7 5 6 7 7 5 6 4 2 5 4 3 2 2 2 4 4 4 4 4 3 4 4 3 3 2 2 2 2 3 2 2 2 2 1 2 2 3 3 2 2 2 2 2 3 2 2 3 4
7 7 7 8 7 7 6 4 1 3 3 3 3 4 3 3 3 3 4 4 3 3 3 3 2 2 1 1 1 1 2 2 1 1 2 2 2 3 3 2 2 1 2 2 3 3 3 2 3
7 7 8 6 5 6 5 3 3 3 3 3 4 4 4 4 3 3 3 4 3 3 3 3 3 2 1 1 1 2 2 2 1 2 2 2 2 2 2 2 1 1 2 2 2 3 3 2 3
7 5 4 3 2 3 1 2 3 2 2 3 4 4 4 4 4 4 3 3 4 3 3 3 3 2 2 1 1 2 2 1 1 2 1 1 1 1 1 1 1 1 2 2 2 2 2 3 3
6 4 3 4 3 2 2 4 4 4 5 5 5 4 5 4 4 4 3 3 3 2 2 3 3 2 1 1 1 1 1 0 1 1 1 1 1 0 1 1 1 1 2 3 2 2 3 2 2
7 6 4 4 6 2 2 4 5 5 6 6 6 5 4 4 4 4 4 3 3 3 2 3 2 2 2 1 1 1 0 0 1 1 1 1 1 1 0 1 1 1 2 2 2 2 3 2 2
5 7 4 3 3 3 1 2 3 4 5 6 5 4 5 4 3 3 4 4 3 3 3 3 3 3 2 1 1 1 1 1 1 1 1 1 1 1 2 2 2 2 2 2 2 3 3 2 3
6 6 5 4 3 3 3 3 3 3 3 4 3 5 5 4 3 3 3 3 3 2 2 2 3 3 2 2 1 2 1 1 1 1 1 1 2 2 2 2 2 2 2 2 2 3 3 3 4
5 5 5 3 3 3 2 1 1 3 4 4 5 6 5 4 4 4 4 4 3 2 2 3 3 2 2 2 2 1 1 1 2 2 2 2 2 1 1 2 2 2 2 2 2 3 3 4 4
Wind_Direction
246 245 235 244 242 242 253 258 295 19 75 63 45 46 43 39 44 83 107 107 110 118 127 129 127 127 127 128 129 130 131 132 131 131 131 129 127 125 123 120 119 117 115 114 113 108 98 90 77
254 248 240 244 250 253 251 250 356 59 77 76 65 58 56 57 64 99 103 107 114 122 130 131 131 130 131 131 131 133 136 137 136 136 136 135 133 133 131 129 127 124 121 118 116 111 102 92 76
256 254 252 242 243 259 276 308 90 95 92 90 77 56 48 62 66 88 106 113 115 121 126 129 134 132 133 134 135 137 139 140 139 139 140 141 141 140 138 137 135 133 130 125 121 114 101 71 4
252 237 236 249 251 246 269 296 55 92 91 100 96 85 74 65 85 109 118 119 122 125 128 134 137 136 136 137 140 142 142 143 143 144 145 146 146 145 146 144 144 145 146 144 142 141 144 321 306
242 248 240 250 252 252 253 261 275 74 86 99 106 105 95 86 101 111 120 127 130 130 131 137 140 140 140 142 143 145 146 146 148 149 149 150 153 155 156 157 160 166 172 177 184 195 224 253 280
240 244 248 248 244 239 236 235 118 44 25 84 106 108 95 98 104 119 126 134 133 131 131 136 143 144 145 146 146 147 147 149 150 152 154 158 161 164 168 175 179 188 200 214 224 229 241 251 264
253 262 261 257 256 247 172 41 31 52 358 45 90 107 118 107 105 121 133 133 129 129 130 139 145 145 146 147 148 149 149 151 153 158 162 166 172 179 181 184 190 201 216 228 239 246 249 250 255
254 272 274 269 264 269 60 47 51 38 37 59 62 105 126 126 123 127 127 129 128 127 131 138 142 146 150 150 152 153 153 156 159 166 173 178 186 192 194 193 199 206 220 233 242 250 253 254 253
249 260 274 284 291 323 38 42 49 60 59 65 55 87 119 128 130 131 129 126 125 126 132 140 142 149 154 154 151 155 157 159 162 170 182 191 199 196 197 199 188 202 216 230 241 247 250 254 250
237 252 273 289 305 324 354 353 7 22 54 65 74 92 120 136 141 141 140 133 131 132 141 148 148 154 159 155 148 161 166 161 178 172 181 201 216 216 196 180 189 205 218 229 240 248 249 247 245
238 250 267 283 307 321 321 324 342 316 6 54 113 129 139 145 148 146 141 140 144 143 145 150 148 152 160 148 154 166 171 161 182 172 185 202 218 203 185 172 187 209 218 229 234 237 238 239 246
244 256 273 284 309 320 308 314 340 10 8 78 119 127 143 160 156 152 150 154 149 145 149 149 147 151 158 143 157 162 163 156 173 175 192 194 207 215 190 181 190 214 208 219 245 246 243 259 260
248 254 265 282 286 295 303 303 344 26 67 111 127 144 154 146 148 141 134 141 139 141 146 146 139 141 137 131 166 162 159 153 169 163 174 211 204 200 203 184 224 250 241 229 260 272 271 269 268
259 261 259 265 260 243 260 280 231 39 115 132 142 145 156 149 132 114 110 130 137 141 143 141 140 135 143 145 156 157 151 148 158 154 168 199 188 136 279 235 235 258 271 261 258 268 268 260 261
254 255 254 253 250 238 231 247 209 165 166 158 162 148 151 149 138 133 126 126 121 128 125 129 141 140 152 155 170 161 159 151 155 151 160 170 172 152 229 248 235 263 275 270 263 273 277 270 272
257 248 246 249 245 230 230 240 233 169 161 155 156 141 145 134 123 119 124 117 116 119 117 125 149 141 145 156 175 170 179 161 161 160 158 170 179 193 237 245 246 287 272 256 263 272 290 288 282
247 252 250 251 244 224 226 249 195 203 162 122 122 134 128 122 116 108 124 126 116 124 132 136 133 141 160 166 179 204 186 177 174 168 156 168 185 197 231 249 253 265 272 270 277 280 276 278 276
269 270 257 253 241 226 208 212 184 180 192 112 117 131 128 136 131 119 123 132 131 131 133 140 140 128 146 152 171 214 208 200 213 164 152 161 193 211 235 240 235 264 269 270 278 285 270 272 271
284 286 290 282 274 272 232 191 179 152 132 100 89 107 123 122 127 127 129 129 129 124 121 133 141 136 160 177 192 209 213 210 228 204 163 182 199 213 245 272 264 266 264 269 272 274 276 274 271
289 289 283 284 255 248 238 184 134 109 117 111 98 104 120 131 121 125 130 136 138 135 141 139 130 139 180 187 206 221 211 219 211 209 186 204 211 224 239 244 273 275 276 271 270 275 276 282 276
281 293 291 288 271 248 247 238 206 115 106 100 85 82 111 120 128 129 128 127 146 151 158 160 155 148 164 201 202 209 192 260 242 216 202 209 217 227 248 240 262 275 276 279 279 266 268 279 286
283 278 279 280 272 248 237 245 190 128 125 97 80 80 100 114 118 142 143 154 184 175 160 151 141 153 171 212 211 218 223 227 227 220 205 208 220 226 238 240 249 261 278 286 281 285 278 277 281
302 293 276 264 265 263 230 238 120 102 87 66 49 40 69 98 105 137 149 156 158 152 134 134 150 158 175 226 219 243 248 243 236 208 195 217 230 232 242 242 251 273 279 284 297 299 288 279 276
307 308 298 272 255 259 244 222 94 47 28 51 47 37 38 64 75 101 123 128 126 130 132 140 149 147 183 213 221 242 256 253 232 236 220 224 225 223 233 242 263 282 283 291 293 289 291 288 284
321 327 314 293 240 262 299 58 76 72 62 64 60 35 51 52 64 81 93 112 110 113 126 137 140 149 171 189 215 228 237 244 243 251 242 241 245 229 224 291 288 289 285 280 283 284 281 280 282
306 310 296 305 295 309 18 77 83 56 73 73 83 59 60 55 70 78 82 88 102 105 107 121 131 135 148 166 185 198 212 253 273 265 260 256 266 261 144 240 265 265 279 292 290 285 279 280 277
306 312 307 300 293 306 66 91 98 63 59 53 65 70 62 64 66 66 75 87 89 80 96 113 121 126 132 132 127 113 134 266 305 305 285 269 280 289 278 260 267 273 281 293 295 291 289 297 293
302 314 328 339 339 347 35 72 28 33 39 43 41 68 74 64 55 65 75 76 75 78 89 107 113 106 107 98 75 69 54 357 323 274 272 303 305 290 278 261 257 268 279 290 294 289 290 293 293
339 341 352 346 324 312 321 49 37 34 33 38 53 67 63 48 48 77 86 93 93 83 86 100 100 104 103 96 73 58 41 359 317 320 321 298 277 273 265 274 275 273 277 286 285 285 296 299 298
359 352 349 330 326 331 322 50 41 57 48 53 61 65 56 52 44 64 77 85 86 76 59 66 82 95 100 95 84 67 26 4 346 333 319 299 293 288 293 286 288 284 293 296 292 301 304 299 296